This is the latest recevied weather packets stored in our database for station/object K5OBH. If no packets are shown the sender has not sent any weather packets the latest 10 day(s).
| Time | Temp. | Humidity | Pressure | Rain* | Wind** | Luminosity | Snow |
|---|---|---|---|---|---|---|---|
| 1777916323 | 24.44° C | 55% | 1006.3 hPa | 0 mm | - | 555 W/m² | - |
| 1777916020 | 23.89° C | 55% | 1006.6 hPa | 0 mm | - | 627 W/m² | - |
| 1777915717 | 23.89° C | 55% | 1006.6 hPa | 0 mm | - | 632 W/m² | - |
| 1777915414 | 23.89° C | 56% | 1006.8 hPa | 0 mm | - | 630 W/m² | - |
| 1777915109 | 24.44° C | 55% | 1006.8 hPa | 0 mm | - | 658 W/m² | - |
| 1777914807 | 23.89° C | 55% | 1006.7 hPa | 0 mm | - | 628 W/m² | - |
| 1777914504 | 23.89° C | 54% | 1006.6 hPa | 0 mm | - | 652 W/m² | - |
| 1777914201 | 23.89° C | 55% | 1006.8 hPa | 0 mm | - | 681 W/m² | - |
| 1777913897 | 23.89° C | 54% | 1006.7 hPa | 0 mm | - | 657 W/m² | - |
| 1777913594 | 23.89° C | 55% | 1006.8 hPa | 0 mm | - | 642 W/m² | - |
| 1777913290 | 23.33° C | 56% | 1006.8 hPa | 0 mm | - | 635 W/m² | - |
| 1777912987 | 23.33° C | 55% | 1006.8 hPa | 0 mm | - | 611 W/m² | - |
| 1777912683 | 23.33° C | 56% | 1006.9 hPa | 0 mm | - | 619 W/m² | - |
| 1777912379 | 22.78° C | 55% | 1007 hPa | 0 mm | - | 581 W/m² | - |
| 1777912075 | 22.78° C | 55% | 1006.9 hPa | 0 mm | - | 599 W/m² | - |
| 1777911771 | 22.78° C | 55% | 1007.1 hPa | 0 mm | - | 569 W/m² | - |
| 1777911468 | 22.78° C | 55% | 1007.2 hPa | 0 mm | - | 546 W/m² | - |
| 1777911165 | 22.78° C | 55% | 1007.3 hPa | 0 mm | - | 546 W/m² | - |
| 1777910863 | 22.78° C | 55% | 1007.1 hPa | 0 mm | - | 555 W/m² | - |
| 1777910559 | 22.78° C | 56% | 1007.2 hPa | 0 mm | - | 531 W/m² | - |
| 1777910256 | 22.78° C | 56% | 1006.9 hPa | 0 mm | - | 513 W/m² | - |
| 1777909953 | 22.22° C | 56% | 1007.2 hPa | 0 mm | - | 536 W/m² | - |
| 1777909650 | 22.22° C | 57% | 1007.3 hPa | 0 mm | - | 502 W/m² | - |
| 1777909348 | 21.67° C | 58% | 1007.4 hPa | 0 mm | - | 451 W/m² | - |
| 1777909045 | 21.67° C | 57% | 1007.3 hPa | 0 mm | - | 451 W/m² | - |
* Rain latest hour (hover to see other rain measurements)
** Current wind speed in m/s (hover to see current wind gust speed)